Time,TemperatureF,DewpointF,PressureIn,WindDirection,WindDirectionDegrees,WindSpeedMPH,WindSpeedGustMPH,Humidity,HourlyPrecipIn,Conditions,Clouds,dailyrainin,SoftwareType,DateUTC
2013-01-20 00:05:00,51.8,13.0,30.10,ESE,115,0.0,1.0,21,0.00,,,0.00,Wunderground v.1.15,2013-01-20 08:05:00,
2013-01-20 00:10:00,51.8,13.0,30.10,East,96,0.0,0.0,21,0.00,,,0.00,Wunderground v.1.15,2013-01-20 08:10:00,
2013-01-20 00:15:00,51.9,13.1,30.10,ESE,111,0.0,0.0,21,0.00,,,0.00,Wunderground v.1.15,2013-01-20 08:15:00,
2013-01-20 00:20:00,52.1,13.3,30.10,East,87,0.0,0.0,21,0.00,,,0.00,Wunderground v.1.15,2013-01-20 08:20:00,
2013-01-20 00:26:00,52.3,13.5,30.10,ENE,74,0.0,0.0,21,0.00,,,0.00,Wunderground v.1.15,2013-01-20 08:26:00,
2013-01-20 00:31:00,52.3,13.5,30.10,East,79,0.0,0.0,21,0.00,,,0.00,Wunderground v.1.15,2013-01-20 08:31:00,
2013-01-20 00:36:00,52.3,13.5,30.10,ENE,78,0.0,0.0,21,0.00,,,0.00,Wunderground v.1.15,2013-01-20 08:36:00,
2013-01-20 00:42:00,52.1,13.3,30.10,NE,36,0.0,0.0,21,0.00,,,0.00,Wunderground v.1.15,2013-01-20 08:42:00,
2013-01-20 00:47:00,52.0,12.1,30.10,ENE,63,0.0,0.0,20,0.00,,,0.00,Wunderground v.1.15,2013-01-20 08:47:00,
2013-01-20 00:52:00,52.0,13.2,30.10,ENE,61,0.0,0.0,21,0.00,,,0.00,Wunderground v.1.15,2013-01-20 08:52:00,
2013-01-20 00:58:00,51.7,13.0,30.11,ENE,67,0.0,0.0,21,0.00,,,0.00,Wunderground v.1.15,2013-01-20 08:58:00,
2013-01-20 01:03:00,51.5,12.8,30.10,NE,40,0.0,0.0,21,0.00,,,0.00,Wunderground v.1.15,2013-01-20 09:03:00,
2013-01-20 01:08:00,51.4,12.7,30.11,NE,37,0.0,0.0,21,0.00,,,0.00,Wunderground v.1.15,2013-01-20 09:08:00,
2013-01-20 01:13:00,51.4,11.6,30.11,NE,34,0.0,0.0,20,0.00,,,0.00,Wunderground v.1.15,2013-01-20 09:13:00,
2013-01-20 01:19:00,51.4,11.6,30.11,East,98,0.0,0.0,20,0.00,,,0.00,Wunderground v.1.15,2013-01-20 09:19:00,
2013-01-20 01:24:00,51.4,11.6,30.10,East,87,0.0,0.0,20,0.00,,,0.00,Wunderground v.1.15,2013-01-20 09:24:00,
2013-01-20 01:29:00,51.6,11.8,30.10,East,93,0.0,0.0,20,0.00,,,0.00,Wunderground v.1.15,2013-01-20 09:29:00,
2013-01-20 01:35:00,51.8,11.9,30.10,East,86,0.0,0.0,20,0.00,,,0.00,Wunderground v.1.15,2013-01-20 09:35:00,
2013-01-20 01:40:00,51.8,11.9,30.11,SE,128,0.0,0.0,20,0.00,,,0.00,Wunderground v.1.15,2013-01-20 09:40:00,
2013-01-20 01:45:00,51.9,12.0,30.11,East,84,0.0,0.0,20,0.00,,,0.00,Wunderground v.1.15,2013-01-20 09:45:00,
2013-01-20 01:51:00,51.8,13.0,30.11,East,94,0.0,0.0,21,0.00,,,0.00,Wunderground v.1.15,2013-01-20 09:51:00,
2013-01-20 01:57:00,51.5,11.7,30.11,East,87,0.0,0.0,20,0.00,,,0.00,Wunderground v.1.15,2013-01-20 09:57:00,
2013-01-20 02:02:00,51.3,12.6,30.11,East,82,0.0,0.0,21,0.00,,,0.00,Wunderground v.1.15,2013-01-20 10:02:00,
2013-01-20 02:07:00,51.2,12.5,30.11,NNE,26,0.0,1.0,21,0.00,,,0.00,Wunderground v.1.15,2013-01-20 10:07:00,
2013-01-20 02:12:00,51.2,12.5,30.11,East,86,0.0,0.0,21,0.00,,,0.00,Wunderground v.1.15,2013-01-20 10:12:00,
2013-01-20 02:17:00,51.2,12.5,30.10,East,88,0.0,1.0,21,0.00,,,0.00,Wunderground v.1.15,2013-01-20 10:17:00,
2013-01-20 02:22:00,51.1,12.5,30.10,East,87,0.0,1.0,21,0.00,,,0.00,Wunderground v.1.15,2013-01-20 10:22:00,
2013-01-20 02:27:00,51.1,12.5,30.10,ENE,72,0.0,1.0,21,0.00,,,0.00,Wunderground v.1.15,2013-01-20 10:27:00,
2013-01-20 02:32:00,51.2,12.5,30.10,East,88,0.0,0.0,21,0.00,,,0.00,Wunderground v.1.15,2013-01-20 10:32:00,
2013-01-20 02:37:00,51.5,12.8,30.10,ENE,76,0.0,3.0,21,0.00,,,0.00,Wunderground v.1.15,2013-01-20 10:37:00,
2013-01-20 02:42:00,51.5,12.8,30.09,ESE,117,0.0,2.0,21,0.00,,,0.00,Wunderground v.1.15,2013-01-20 10:42:00,
2013-01-20 02:47:00,51.5,12.8,30.09,East,90,0.0,3.0,21,0.00,,,0.00,Wunderground v.1.15,2013-01-20 10:47:00,
2013-01-20 02:52:00,51.5,12.8,30.09,East,86,0.0,1.0,21,0.00,,,0.00,Wunderground v.1.15,2013-01-20 10:52:00,
2013-01-20 02:57:00,51.4,12.7,30.09,ESE,110,0.0,2.0,21,0.00,,,0.00,Wunderground v.1.15,2013-01-20 10:57:00,
2013-01-20 03:02:00,51.4,12.7,30.09,SE,125,2.0,2.0,21,0.00,,,0.00,Wunderground v.1.15,2013-01-20 11:02:00,
2013-01-20 03:07:00,51.5,11.7,30.09,East,87,0.0,5.0,20,0.00,,,0.00,Wunderground v.1.15,2013-01-20 11:07:00,
2013-01-20 03:12:00,51.7,11.9,30.09,East,82,0.0,5.0,20,0.00,,,0.00,Wunderground v.1.15,2013-01-20 11:12:00,
2013-01-20 03:17:00,51.8,11.9,30.08,ENE,72,2.0,5.0,20,0.00,,,0.00,Wunderground v.1.15,2013-01-20 11:17:00,
2013-01-20 03:22:00,51.9,12.0,30.08,ESE,105,0.0,4.0,20,0.00,,,0.00,Wunderground v.1.15,2013-01-20 11:22:00,
2013-01-20 03:27:00,51.9,12.0,30.08,North,355,0.0,4.0,20,0.00,,,0.00,Wunderground v.1.15,2013-01-20 11:27:00,
2013-01-20 03:32:00,51.9,12.0,30.08,SE,128,3.0,4.0,20,0.00,,,0.00,Wunderground v.1.15,2013-01-20 11:32:00,
2013-01-20 03:37:00,51.9,12.0,30.08,SSE,157,0.0,4.0,20,0.00,,,0.00,Wunderground v.1.15,2013-01-20 11:37:00,
2013-01-20 03:42:00,51.9,12.0,30.08,ESE,121,0.0,5.0,20,0.00,,,0.00,Wunderground v.1.15,2013-01-20 11:42:00,
2013-01-20 03:48:00,52.1,12.2,30.08,NE,52,0.0,6.0,20,0.00,,,0.00,Wunderground v.1.15,2013-01-20 11:48:00,
2013-01-20 03:53:00,52.2,12.3,30.07,ESE,103,3.0,5.0,20,0.00,,,0.00,Wunderground v.1.15,2013-01-20 11:53:00,
2013-01-20 03:58:00,52.2,12.3,30.08,East,92,0.0,5.0,20,0.00,,,0.00,Wunderground v.1.15,2013-01-20 11:58:00,
2013-01-20 04:03:00,52.3,12.4,30.08,SE,126,0.0,6.0,20,0.00,,,0.00,Wunderground v.1.15,2013-01-20 12:03:00,
2013-01-20 04:08:00,52.2,12.3,30.08,ESE,115,6.0,6.0,20,0.00,,,0.00,Wunderground v.1.15,2013-01-20 12:08:00,
2013-01-20 04:13:00,52.2,12.3,30.08,ENE,68,4.0,4.0,20,0.00,,,0.00,Wunderground v.1.15,2013-01-20 12:13:00,
2013-01-20 04:18:00,52.1,12.2,30.08,SE,133,0.0,4.0,20,0.00,,,0.00,Wunderground v.1.15,2013-01-20 12:18:00,
2013-01-20 04:23:00,52.1,12.2,30.08,ENE,60,0.0,4.0,20,0.00,,,0.00,Wunderground v.1.15,2013-01-20 12:23:00,
2013-01-20 04:28:00,52.4,11.3,30.08,East,88,0.0,11.0,19,0.00,,,0.00,Wunderground v.1.15,2013-01-20 12:28:00,
2013-01-20 04:33:00,52.5,11.4,30.08,East,92,0.0,4.0,19,0.00,,,0.00,Wunderground v.1.15,2013-01-20 12:33:00,
2013-01-20 04:38:00,52.6,11.4,30.08,ESE,112,0.0,4.0,19,0.00,,,0.00,Wunderground v.1.15,2013-01-20 12:38:00,
2013-01-20 04:43:00,52.6,11.4,30.08,ESE,104,0.0,5.0,19,0.00,,,0.00,Wunderground v.1.15,2013-01-20 12:43:00,
2013-01-20 04:49:00,52.8,11.6,30.08,ESE,117,0.0,6.0,19,0.00,,,0.00,Wunderground v.1.15,2013-01-20 12:49:00,
2013-01-20 04:54:00,53.0,11.8,30.08,ENE,68,0.0,6.0,19,0.00,,,0.00,Wunderground v.1.15,2013-01-20 12:54:00,
2013-01-20 04:59:00,53.1,11.9,30.08,ESE,107,0.0,8.0,19,0.00,,,0.00,Wunderground v.1.15,2013-01-20 12:59:00,
2013-01-20 05:04:00,53.0,11.8,30.10,ESE,107,1.0,3.0,19,0.00,,,0.00,Wunderground v.1.15,2013-01-20 13:04:00,
2013-01-20 05:09:00,52.9,11.7,30.10,ENE,59,4.0,5.0,19,0.00,,,0.00,Wunderground v.1.15,2013-01-20 13:09:00,
2013-01-20 05:14:00,53.2,11.9,30.10,East,99,2.0,9.0,19,0.00,,,0.00,Wunderground v.1.15,2013-01-20 13:14:00,
2013-01-20 05:19:00,53.5,12.2,30.10,ENE,72,1.0,9.0,19,0.00,,,0.00,Wunderground v.1.15,2013-01-20 13:19:00,
2013-01-20 05:24:00,53.5,12.2,30.09,NNE,22,3.0,5.0,19,0.00,,,0.00,Wunderground v.1.15,2013-01-20 13:24:00,
2013-01-20 05:29:00,53.4,12.1,30.09,East,100,0.0,5.0,19,0.00,,,0.00,Wunderground v.1.15,2013-01-20 13:29:00,
2013-01-20 05:34:00,53.6,11.0,30.09,ESE,104,0.0,6.0,18,0.00,,,0.00,Wunderground v.1.15,2013-01-20 13:34:00,
2013-01-20 05:39:00,53.6,11.0,30.09,East,95,0.0,6.0,18,0.00,,,0.00,Wunderground v.1.15,2013-01-20 13:39:00,
2013-01-20 05:44:00,53.2,11.9,30.10,ESE,113,0.0,6.0,19,0.00,,,0.00,Wunderground v.1.15,2013-01-20 13:44:00,
2013-01-20 05:49:00,53.0,11.8,30.10,ESE,118,0.0,6.0,19,0.00,,,0.00,Wunderground v.1.15,2013-01-20 13:49:00,
2013-01-20 05:55:00,53.0,11.8,30.10,East,98,1.0,5.0,19,0.00,,,0.00,Wunderground v.1.15,2013-01-20 13:55:00,
2013-01-20 06:00:00,53.1,11.9,30.10,East,83,0.0,2.0,19,0.00,,,0.00,Wunderground v.1.15,2013-01-20 14:00:00,
2013-01-20 06:05:00,52.9,11.7,30.11,East,92,3.0,4.0,19,0.00,,,0.00,Wunderground v.1.15,2013-01-20 14:05:00,
2013-01-20 06:10:00,52.8,11.6,30.11,ESE,109,7.0,7.0,19,0.00,,,0.00,Wunderground v.1.15,2013-01-20 14:10:00,
2013-01-20 06:15:00,53.0,11.8,30.11,ESE,118,2.0,7.0,19,0.00,,,0.00,Wunderground v.1.15,2013-01-20 14:15:00,
2013-01-20 06:20:00,53.3,12.0,30.11,ESE,121,1.0,1.0,19,0.00,,,0.00,Wunderground v.1.15,2013-01-20 14:20:00,
2013-01-20 06:25:00,53.2,11.9,30.11,ESE,103,1.0,4.0,19,0.00,,,0.00,Wunderground v.1.15,2013-01-20 14:25:00,
2013-01-20 06:30:00,53.1,11.9,30.11,East,86,0.0,1.0,19,0.00,,,0.00,Wunderground v.1.15,2013-01-20 14:30:00,
2013-01-20 06:35:00,52.8,11.6,30.11,ESE,111,0.0,7.0,19,0.00,,,0.00,Wunderground v.1.15,2013-01-20 14:35:00,
2013-01-20 06:40:00,52.9,11.7,30.11,East,84,3.0,6.0,19,0.00,,,0.00,Wunderground v.1.15,2013-01-20 14:40:00,
2013-01-20 06:45:00,53.3,12.0,30.11,East,101,0.0,7.0,19,0.00,,,0.00,Wunderground v.1.15,2013-01-20 14:45:00,
2013-01-20 06:50:00,53.5,12.2,30.11,ESE,107,0.0,2.0,19,0.00,,,0.00,Wunderground v.1.15,2013-01-20 14:50:00,
2013-01-20 06:55:00,53.6,12.3,30.11,ENE,76,4.0,6.0,19,0.00,,,0.00,Wunderground v.1.15,2013-01-20 14:55:00,
2013-01-20 07:00:00,53.6,12.3,30.10,East,84,5.0,5.0,19,0.00,,,0.00,Wunderground v.1.15,2013-01-20 15:00:00,
2013-01-20 07:05:00,53.5,12.2,30.10,SE,131,0.0,5.0,19,0.00,,,0.00,Wunderground v.1.15,2013-01-20 15:05:00,
2013-01-20 07:10:00,53.2,13.1,30.10,East,79,1.0,1.0,20,0.00,,,0.00,Wunderground v.1.15,2013-01-20 15:10:00,
2013-01-20 07:15:00,53.0,12.9,30.11,ENE,66,0.0,5.0,20,0.00,,,0.00,Wunderground v.1.15,2013-01-20 15:15:00,
2013-01-20 07:20:00,53.1,13.0,30.11,East,92,0.0,4.0,20,0.00,,,0.00,Wunderground v.1.15,2013-01-20 15:20:00,
2013-01-20 07:25:00,53.6,13.4,30.11,SE,140,5.0,6.0,20,0.00,,,0.00,Wunderground v.1.15,2013-01-20 15:25:00,
2013-01-20 07:30:00,54.8,13.3,30.10,ENE,78,0.0,3.0,19,0.00,,,0.00,Wunderground v.1.15,2013-01-20 15:30:00,
2013-01-20 07:35:00,55.7,14.0,30.10,ESE,103,1.0,12.0,19,0.00,,,0.00,Wunderground v.1.15,2013-01-20 15:35:00,
2013-01-20 07:40:00,56.0,13.0,30.10,ESE,110,1.0,6.0,18,0.00,,,0.00,Wunderground v.1.15,2013-01-20 15:40:00,
2013-01-20 07:45:00,56.2,14.4,30.10,ESE,108,2.0,7.0,19,0.00,,,0.00,Wunderground v.1.15,2013-01-20 15:45:00,
2013-01-20 07:50:00,56.5,14.7,30.10,ESE,115,0.0,4.0,19,0.00,,,0.00,Wunderground v.1.15,2013-01-20 15:50:00,
2013-01-20 07:55:00,56.8,13.7,30.11,ESE,110,0.0,6.0,18,0.00,,,0.00,Wunderground v.1.15,2013-01-20 15:55:00,
2013-01-20 08:00:00,57.0,13.8,30.10,ESE,117,0.0,9.0,18,0.00,,,0.00,Wunderground v.1.15,2013-01-20 16:00:00,
2013-01-20 08:05:00,57.1,15.2,30.11,ESE,106,1.0,9.0,19,0.00,,,0.00,Wunderground v.1.15,2013-01-20 16:05:00,
2013-01-20 08:10:00,57.5,14.3,30.11,NE,53,2.0,6.0,18,0.00,,,0.00,Wunderground v.1.15,2013-01-20 16:10:00,
2013-01-20 08:15:00,57.8,14.5,30.11,East,90,1.0,9.0,18,0.00,,,0.00,Wunderground v.1.15,2013-01-20 16:15:00,
2013-01-20 08:20:00,57.9,14.6,30.11,East,95,4.0,9.0,18,0.00,,,0.00,Wunderground v.1.15,2013-01-20 16:20:00,
2013-01-20 08:25:00,58.0,15.9,30.11,ENE,64,6.0,9.0,19,0.00,,,0.00,Wunderground v.1.15,2013-01-20 16:25:00,
2013-01-20 08:30:00,58.3,16.2,30.11,East,83,2.0,5.0,19,0.00,,,0.00,Wunderground v.1.15,2013-01-20 16:30:00,
2013-01-20 08:36:00,58.8,15.3,30.10,East,95,5.0,9.0,18,0.00,,,0.00,Wunderground v.1.15,2013-01-20 16:36:00,
2013-01-20 08:41:00,59.0,15.5,30.10,ESE,115,6.0,11.0,18,0.00,,,0.00,Wunderground v.1.15,2013-01-20 16:41:00,
2013-01-20 08:46:00,59.1,15.6,30.11,SE,144,7.0,11.0,18,0.00,,,0.00,Wunderground v.1.15,2013-01-20 16:46:00,
2013-01-20 08:51:00,59.5,15.9,30.10,East,99,0.0,4.0,18,0.00,,,0.00,Wunderground v.1.15,2013-01-20 16:51:00,
2013-01-20 08:56:00,59.8,16.1,30.11,East,86,5.0,10.0,18,0.00,,,0.00,Wunderground v.1.15,2013-01-20 16:56:00,
2013-01-20 09:01:00,60.0,16.3,30.11,East,95,6.0,6.0,18,0.00,,,0.00,Wunderground v.1.15,2013-01-20 17:01:00,
2013-01-20 09:06:00,60.2,16.5,30.11,East,88,3.0,12.0,18,0.00,,,0.00,Wunderground v.1.15,2013-01-20 17:06:00,
2013-01-20 09:11:00,60.4,15.3,30.11,ESE,121,5.0,7.0,17,0.00,,,0.00,Wunderground v.1.15,2013-01-20 17:11:00,
2013-01-20 09:16:00,60.9,17.0,30.11,ESE,118,0.0,12.0,18,0.00,,,0.00,Wunderground v.1.15,2013-01-20 17:16:00,
2013-01-20 09:21:00,61.2,16.0,30.11,ENE,68,3.0,10.0,17,0.00,,,0.00,Wunderground v.1.15,2013-01-20 17:21:00,
2013-01-20 09:26:00,61.4,16.1,30.11,East,94,0.0,12.0,17,0.00,,,0.00,Wunderground v.1.15,2013-01-20 17:26:00,
2013-01-20 09:31:00,61.9,16.5,30.10,ESE,120,6.0,7.0,17,0.00,,,0.00,Wunderground v.1.15,2013-01-20 17:31:00,
2013-01-20 09:36:00,62.1,15.3,30.10,ENE,72,6.0,12.0,16,0.00,,,0.00,Wunderground v.1.15,2013-01-20 17:36:00,
2013-01-20 09:41:00,62.3,15.5,30.11,East,90,1.0,7.0,16,0.00,,,0.00,Wunderground v.1.15,2013-01-20 17:41:00,
2013-01-20 09:46:00,62.6,15.7,30.11,ESE,111,6.0,11.0,16,0.00,,,0.00,Wunderground v.1.15,2013-01-20 17:46:00,
2013-01-20 09:51:00,62.6,15.7,30.11,ESE,105,10.0,13.0,16,0.00,,,0.00,Wunderground v.1.15,2013-01-20 17:51:00,
2013-01-20 09:56:00,62.7,15.8,30.10,NE,56,5.0,13.0,16,0.00,,,0.00,Wunderground v.1.15,2013-01-20 17:56:00,
2013-01-20 10:01:00,63.0,16.0,30.11,SE,129,5.0,12.0,16,0.00,,,0.00,Wunderground v.1.15,2013-01-20 18:01:00,
2013-01-20 10:06:00,63.1,16.1,30.10,ENE,77,10.0,13.0,16,0.00,,,0.00,Wunderground v.1.15,2013-01-20 18:06:00,
2013-01-20 10:11:00,63.4,16.4,30.11,SSE,164,6.0,11.0,16,0.00,,,0.00,Wunderground v.1.15,2013-01-20 18:11:00,
2013-01-20 10:16:00,63.7,16.6,30.10,East,99,9.0,11.0,16,0.00,,,0.00,Wunderground v.1.15,2013-01-20 18:16:00,
2013-01-20 10:21:00,64.0,16.8,30.10,ESE,118,10.0,10.0,16,0.00,,,0.00,Wunderground v.1.15,2013-01-20 18:21:00,
2013-01-20 10:26:00,64.2,17.0,30.10,ENE,71,6.0,15.0,16,0.00,,,0.00,Wunderground v.1.15,2013-01-20 18:26:00,
2013-01-20 10:31:00,64.5,17.3,30.09,East,86,4.0,13.0,16,0.00,,,0.00,Wunderground v.1.15,2013-01-20 18:31:00,
2013-01-20 10:36:00,64.7,17.4,30.09,ENE,61,8.0,13.0,16,0.00,,,0.00,Wunderground v.1.15,2013-01-20 18:36:00,
2013-01-20 10:41:00,65.0,16.2,30.09,East,94,5.0,9.0,15,0.00,,,0.00,Wunderground v.1.15,2013-01-20 18:41:00,
2013-01-20 10:46:00,65.2,17.8,30.09,ENE,74,2.0,13.0,16,0.00,,,0.00,Wunderground v.1.15,2013-01-20 18:46:00,
2013-01-20 10:51:00,65.3,16.4,30.09,SE,134,0.0,12.0,15,0.00,,,0.00,Wunderground v.1.15,2013-01-20 18:51:00,
2013-01-20 10:56:00,65.5,16.6,30.08,ESE,117,0.0,12.0,15,0.00,,,0.00,Wunderground v.1.15,2013-01-20 18:56:00,
2013-01-20 11:01:00,65.7,16.7,30.08,SE,133,4.0,7.0,15,0.00,,,0.00,Wunderground v.1.15,2013-01-20 19:01:00,
2013-01-20 11:06:00,66.0,17.0,30.08,SE,130,4.0,11.0,15,0.00,,,0.00,Wunderground v.1.15,2013-01-20 19:06:00,
2013-01-20 11:11:00,66.0,17.0,30.08,ENE,78,1.0,12.0,15,0.00,,,0.00,Wunderground v.1.15,2013-01-20 19:11:00,
2013-01-20 11:16:00,66.0,17.0,30.08,NNE,24,3.0,12.0,15,0.00,,,0.00,Wunderground v.1.15,2013-01-20 19:16:00,
2013-01-20 11:21:00,66.3,17.2,30.08,ENE,72,1.0,7.0,15,0.00,,,0.00,Wunderground v.1.15,2013-01-20 19:21:00,
2013-01-20 11:26:00,66.6,17.4,30.07,ESE,107,2.0,13.0,15,0.00,,,0.00,Wunderground v.1.15,2013-01-20 19:26:00,
2013-01-20 11:31:00,66.6,15.9,30.07,SE,137,2.0,13.0,14,0.00,,,0.00,Wunderground v.1.15,2013-01-20 19:31:00,
2013-01-20 11:36:00,66.6,15.9,30.06,SE,126,4.0,13.0,14,0.00,,,0.00,Wunderground v.1.15,2013-01-20 19:36:00,
2013-01-20 11:41:00,66.7,15.9,30.06,ESE,102,5.0,11.0,14,0.00,,,0.00,Wunderground v.1.15,2013-01-20 19:41:00,
2013-01-20 11:46:00,67.0,17.8,30.06,ESE,121,11.0,12.0,15,0.00,,,0.00,Wunderground v.1.15,2013-01-20 19:46:00,
2013-01-20 11:51:00,67.2,16.3,30.05,ESE,122,2.0,10.0,14,0.00,,,0.00,Wunderground v.1.15,2013-01-20 19:51:00,
2013-01-20 11:57:00,67.4,16.5,30.05,ESE,116,4.0,13.0,14,0.00,,,0.00,Wunderground v.1.15,2013-01-20 19:57:00,
2013-01-20 12:02:00,67.4,16.5,30.04,ESE,121,1.0,13.0,14,0.00,,,0.00,Wunderground v.1.15,2013-01-20 20:02:00,
2013-01-20 12:07:00,67.6,16.6,30.04,ENE,74,1.0,13.0,14,0.00,,,0.00,Wunderground v.1.15,2013-01-20 20:07:00,
2013-01-20 12:12:00,67.6,16.6,30.03,NE,55,1.0,13.0,14,0.00,,,0.00,Wunderground v.1.15,2013-01-20 20:12:00,
2013-01-20 12:17:00,67.5,14.9,30.03,ESE,103,1.0,13.0,13,0.00,,,0.00,Wunderground v.1.15,2013-01-20 20:17:00,
2013-01-20 12:22:00,67.4,16.5,30.04,ESE,120,3.0,10.0,14,0.00,,,0.00,Wunderground v.1.15,2013-01-20 20:22:00,
2013-01-20 12:27:00,67.3,14.7,30.04,ENE,63,13.0,17.0,13,0.00,,,0.00,Wunderground v.1.15,2013-01-20 20:27:00,
2013-01-20 12:32:00,67.5,16.6,30.03,SE,126,2.0,12.0,14,0.00,,,0.00,Wunderground v.1.15,2013-01-20 20:32:00,
2013-01-20 12:37:00,67.9,16.9,30.02,East,84,1.0,12.0,14,0.00,,,0.00,Wunderground v.1.15,2013-01-20 20:37:00,
2013-01-20 12:42:00,67.9,15.2,30.02,ESE,103,2.0,12.0,13,0.00,,,0.00,Wunderground v.1.15,2013-01-20 20:42:00,
2013-01-20 12:47:00,67.7,15.0,30.02,SE,130,1.0,12.0,13,0.00,,,0.00,Wunderground v.1.15,2013-01-20 20:47:00,
2013-01-20 12:52:00,67.7,15.0,30.02,ESE,114,4.0,16.0,13,0.00,,,0.00,Wunderground v.1.15,2013-01-20 20:52:00,
2013-01-20 12:57:00,67.7,15.0,30.01,SE,124,4.0,16.0,13,0.00,,,0.00,Wunderground v.1.15,2013-01-20 20:57:00,
2013-01-20 13:02:00,67.8,15.1,30.02,East,99,1.0,11.0,13,0.00,,,0.00,Wunderground v.1.15,2013-01-20 21:02:00,
2013-01-20 13:07:00,67.9,15.2,30.02,SE,140,10.0,11.0,13,0.00,,,0.00,Wunderground v.1.15,2013-01-20 21:07:00,
2013-01-20 13:12:00,67.7,15.0,30.01,ESE,110,5.0,12.0,13,0.00,,,0.00,Wunderground v.1.15,2013-01-20 21:12:00,
2013-01-20 13:17:00,67.6,14.9,30.01,NE,34,2.0,15.0,13,0.00,,,0.00,Wunderground v.1.15,2013-01-20 21:17:00,
2013-01-20 13:23:00,67.8,15.1,30.01,SE,144,2.0,14.0,13,0.00,,,0.00,Wunderground v.1.15,2013-01-20 21:23:00,
2013-01-20 13:28:00,68.0,17.0,30.01,ESE,113,5.0,14.0,14,0.00,,,0.00,Wunderground v.1.15,2013-01-20 21:28:00,
2013-01-20 13:33:00,68.4,15.6,30.01,ESE,118,6.0,10.0,13,0.00,,,0.00,Wunderground v.1.15,2013-01-20 21:33:00,
2013-01-20 13:38:00,68.6,15.7,30.00,ESE,112,2.0,11.0,13,0.00,,,0.00,Wunderground v.1.15,2013-01-20 21:38:00,
2013-01-20 13:43:00,68.3,15.5,30.00,East,99,9.0,13.0,13,0.00,,,0.00,Wunderground v.1.15,2013-01-20 21:43:00,
2013-01-20 13:48:00,68.0,15.3,30.00,East,90,2.0,13.0,13,0.00,,,0.00,Wunderground v.1.15,2013-01-20 21:48:00,
2013-01-20 13:53:00,68.0,15.3,30.00,ESE,103,1.0,15.0,13,0.00,,,0.00,Wunderground v.1.15,2013-01-20 21:53:00,
2013-01-20 13:58:00,68.0,15.3,30.00,North,355,2.0,16.0,13,0.00,,,0.00,Wunderground v.1.15,2013-01-20 21:58:00,
2013-01-20 14:03:00,68.0,15.3,30.00,ESE,102,3.0,12.0,13,0.00,,,0.00,Wunderground v.1.15,2013-01-20 22:03:00,
2013-01-20 14:08:00,68.0,15.3,30.00,ESE,118,1.0,13.0,13,0.00,,,0.00,Wunderground v.1.15,2013-01-20 22:08:00,
2013-01-20 14:14:00,67.9,15.2,30.00,ENE,64,2.0,13.0,13,0.00,,,0.00,Wunderground v.1.15,2013-01-20 22:14:00,
2013-01-20 14:19:00,68.0,15.3,30.00,ENE,74,1.0,13.0,13,0.00,,,0.00,Wunderground v.1.15,2013-01-20 22:19:00,
2013-01-20 14:24:00,67.9,15.2,30.00,SE,134,7.0,16.0,13,0.00,,,0.00,Wunderground v.1.15,2013-01-20 22:24:00,
2013-01-20 14:29:00,68.0,15.3,30.00,ESE,105,0.0,16.0,13,0.00,,,0.00,Wunderground v.1.15,2013-01-20 22:29:00,
2013-01-20 14:34:00,68.1,15.3,30.00,East,84,6.0,15.0,13,0.00,,,0.00,Wunderground v.1.15,2013-01-20 22:34:00,
2013-01-20 14:39:00,68.2,17.1,29.99,ESE,107,4.0,15.0,14,0.00,,,0.00,Wunderground v.1.15,2013-01-20 22:39:00,
2013-01-20 14:44:00,68.0,15.3,29.99,NE,47,10.0,14.0,13,0.00,,,0.00,Wunderground v.1.15,2013-01-20 22:44:00,
2013-01-20 14:49:00,67.9,15.2,29.99,East,99,2.0,14.0,13,0.00,,,0.00,Wunderground v.1.15,2013-01-20 22:49:00,
2013-01-20 14:54:00,68.1,17.0,29.99,NE,52,16.0,16.0,14,0.00,,,0.00,Wunderground v.1.15,2013-01-20 22:54:00,
2013-01-20 14:59:00,67.9,15.2,29.99,SSE,160,5.0,16.0,13,0.00,,,0.00,Wunderground v.1.15,2013-01-20 22:59:00,
2013-01-20 15:04:00,68.0,17.0,29.99,East,80,3.0,10.0,14,0.00,,,0.00,Wunderground v.1.15,2013-01-20 23:04:00,
2013-01-20 15:09:00,68.1,15.3,29.99,ENE,71,3.0,13.0,13,0.00,,,0.00,Wunderground v.1.15,2013-01-20 23:09:00,
2013-01-20 15:14:00,67.8,15.1,29.99,East,84,14.0,14.0,13,0.00,,,0.00,Wunderground v.1.15,2013-01-20 23:14:00,
2013-01-20 15:19:00,67.5,14.9,29.99,East,94,14.0,14.0,13,0.00,,,0.00,Wunderground v.1.15,2013-01-20 23:19:00,
2013-01-20 15:24:00,67.4,14.8,29.99,North,355,1.0,12.0,13,0.00,,,0.00,Wunderground v.1.15,2013-01-20 23:24:00,
2013-01-20 15:29:00,67.3,16.4,29.99,East,101,6.0,13.0,14,0.00,,,0.00,Wunderground v.1.15,2013-01-20 23:29:00,
2013-01-20 15:34:00,67.3,14.7,29.99,ENE,74,1.0,11.0,13,0.00,,,0.00,Wunderground v.1.15,2013-01-20 23:34:00,
2013-01-20 15:39:00,67.2,16.3,29.99,NNE,19,3.0,11.0,14,0.00,,,0.00,Wunderground v.1.15,2013-01-20 23:39:00,
2013-01-20 15:44:00,67.1,14.5,29.99,East,96,1.0,13.0,13,0.00,,,0.00,Wunderground v.1.15,2013-01-20 23:44:00,
2013-01-20 15:49:00,66.9,14.4,29.99,ESE,122,5.0,16.0,13,0.00,,,0.00,Wunderground v.1.15,2013-01-20 23:49:00,
2013-01-20 15:54:00,66.7,14.2,29.99,East,80,10.0,11.0,13,0.00,,,0.00,Wunderground v.1.15,2013-01-20 23:54:00,
2013-01-20 15:59:00,66.5,14.1,29.99,ESE,111,3.0,11.0,13,0.00,,,0.00,Wunderground v.1.15,2013-01-20 23:59:00,
2013-01-20 16:04:00,66.4,15.7,29.99,East,79,2.0,10.0,14,0.00,,,0.00,Wunderground v.1.15,2013-01-21 00:04:00,
2013-01-20 16:09:00,66.3,15.6,29.99,ESE,104,3.0,13.0,14,0.00,,,0.00,Wunderground v.1.15,2013-01-21 00:09:00,
2013-01-20 16:15:00,66.1,15.5,29.99,ESE,103,2.0,13.0,14,0.00,,,0.00,Wunderground v.1.15,2013-01-21 00:15:00,
2013-01-20 16:20:00,65.8,15.2,30.00,NE,53,1.0,4.0,14,0.00,,,0.00,Wunderground v.1.15,2013-01-21 00:20:00,
2013-01-20 16:25:00,65.5,15.0,30.00,ENE,70,5.0,11.0,14,0.00,,,0.00,Wunderground v.1.15,2013-01-21 00:25:00,
2013-01-20 16:30:00,65.2,14.7,30.00,ESE,105,3.0,7.0,14,0.00,,,0.00,Wunderground v.1.15,2013-01-21 00:30:00,
2013-01-20 16:35:00,65.0,14.6,30.00,ESE,103,6.0,11.0,14,0.00,,,0.00,Wunderground v.1.15,2013-01-21 00:35:00,
2013-01-20 16:40:00,64.7,14.3,30.00,ESE,115,2.0,5.0,14,0.00,,,0.00,Wunderground v.1.15,2013-01-21 00:40:00,
2013-01-20 16:45:00,64.4,14.1,30.01,ESE,113,0.0,12.0,14,0.00,,,0.00,Wunderground v.1.15,2013-01-21 00:45:00,
2013-01-20 16:50:00,63.9,13.7,30.01,East,80,2.0,3.0,14,0.00,,,0.00,Wunderground v.1.15,2013-01-21 00:50:00,
2013-01-20 16:55:00,63.5,15.0,30.01,SE,126,8.0,9.0,15,0.00,,,0.00,Wunderground v.1.15,2013-01-21 00:55:00,
2013-01-20 17:00:00,63.1,14.6,30.01,East,93,0.0,2.0,15,0.00,,,0.00,Wunderground v.1.15,2013-01-21 01:00:00,
2013-01-20 17:05:00,62.7,14.3,30.01,ESE,112,1.0,7.0,15,0.00,,,0.00,Wunderground v.1.15,2013-01-21 01:05:00,
2013-01-20 17:10:00,62.4,14.1,30.02,East,80,1.0,2.0,15,0.00,,,0.00,Wunderground v.1.15,2013-01-21 01:10:00,
2013-01-20 17:15:00,62.0,13.8,30.02,East,88,4.0,9.0,15,0.00,,,0.00,Wunderground v.1.15,2013-01-21 01:15:00,
2013-01-20 17:20:00,61.7,15.0,30.02,ESE,118,1.0,2.0,16,0.00,,,0.00,Wunderground v.1.15,2013-01-21 01:20:00,
2013-01-20 17:25:00,61.2,14.6,30.02,East,88,0.0,6.0,16,0.00,,,0.00,Wunderground v.1.15,2013-01-21 01:25:00,
2013-01-20 17:30:00,60.7,14.2,30.02,East,93,1.0,3.0,16,0.00,,,0.00,Wunderground v.1.15,2013-01-21 01:30:00,
2013-01-20 17:35:00,60.1,13.7,30.03,East,88,0.0,4.0,16,0.00,,,0.00,Wunderground v.1.15,2013-01-21 01:35:00,
2013-01-20 17:40:00,59.6,13.3,30.03,East,84,0.0,1.0,16,0.00,,,0.00,Wunderground v.1.15,2013-01-21 01:40:00,
2013-01-20 17:45:00,59.5,13.2,30.03,East,99,5.0,7.0,16,0.00,,,0.00,Wunderground v.1.15,2013-01-21 01:45:00,
2013-01-20 17:50:00,59.3,13.0,30.03,ENE,74,0.0,2.0,16,0.00,,,0.00,Wunderground v.1.15,2013-01-21 01:50:00,
2013-01-20 17:55:00,59.0,14.2,30.04,East,95,0.0,5.0,17,0.00,,,0.00,Wunderground v.1.15,2013-01-21 01:55:00,
2013-01-20 18:00:00,59.0,14.2,30.04,ESE,103,2.0,6.0,17,0.00,,,0.00,Wunderground v.1.15,2013-01-21 02:00:00,
2013-01-20 18:05:00,58.9,14.1,30.04,ESE,117,0.0,6.0,17,0.00,,,0.00,Wunderground v.1.15,2013-01-21 02:05:00,
2013-01-20 18:10:00,58.4,13.7,30.04,ESE,105,0.0,1.0,17,0.00,,,0.00,Wunderground v.1.15,2013-01-21 02:10:00,
2013-01-20 18:16:00,57.7,14.4,30.04,East,91,0.0,1.0,18,0.00,,,0.00,Wunderground v.1.15,2013-01-21 02:16:00,
2013-01-20 18:21:00,57.1,13.9,30.05,East,94,0.0,0.0,18,0.00,,,0.00,Wunderground v.1.15,2013-01-21 02:21:00,
2013-01-20 18:26:00,56.5,14.7,30.05,SE,130,0.0,1.0,19,0.00,,,0.00,Wunderground v.1.15,2013-01-21 02:26:00,
2013-01-20 18:31:00,56.1,14.3,30.05,ESE,122,0.0,1.0,19,0.00,,,0.00,Wunderground v.1.15,2013-01-21 02:31:00,
2013-01-20 18:36:00,55.9,14.2,30.05,East,100,0.0,1.0,19,0.00,,,0.00,Wunderground v.1.15,2013-01-21 02:36:00,
2013-01-20 18:41:00,55.6,13.9,30.05,East,98,0.0,0.0,19,0.00,,,0.00,Wunderground v.1.15,2013-01-21 02:41:00,
2013-01-20 18:46:00,55.4,13.8,30.06,East,98,0.0,0.0,19,0.00,,,0.00,Wunderground v.1.15,2013-01-21 02:46:00,
2013-01-20 18:51:00,55.6,13.9,30.05,East,98,0.0,0.0,19,0.00,,,0.00,Wunderground v.1.15,2013-01-21 02:51:00,
2013-01-20 18:57:00,55.7,14.0,30.05,ESE,113,0.0,1.0,19,0.00,,,0.00,Wunderground v.1.15,2013-01-21 02:57:00,
2013-01-20 19:02:00,55.8,14.1,30.05,SE,127,0.0,0.0,19,0.00,,,0.00,Wunderground v.1.15,2013-01-21 03:02:00,
2013-01-20 19:07:00,55.6,13.9,30.05,ESE,111,0.0,1.0,19,0.00,,,0.00,Wunderground v.1.15,2013-01-21 03:07:00,
2013-01-20 19:12:00,55.3,13.7,30.05,ESE,110,0.0,0.0,19,0.00,,,0.00,Wunderground v.1.15,2013-01-21 03:12:00,
2013-01-20 19:17:00,54.9,14.5,30.05,ENE,72,0.0,0.0,20,0.00,,,0.00,Wunderground v.1.15,2013-01-21 03:17:00,
2013-01-20 19:22:00,54.5,14.2,30.05,ESE,106,0.0,0.0,20,0.00,,,0.00,Wunderground v.1.15,2013-01-21 03:22:00,
2013-01-20 19:27:00,54.2,13.9,30.06,East,94,0.0,0.0,20,0.00,,,0.00,Wunderground v.1.15,2013-01-21 03:27:00,
2013-01-20 19:32:00,54.4,14.1,30.06,ESE,113,0.0,0.0,20,0.00,,,0.00,Wunderground v.1.15,2013-01-21 03:32:00,
2013-01-20 19:37:00,54.6,13.1,30.06,East,79,0.0,2.0,19,0.00,,,0.00,Wunderground v.1.15,2013-01-21 03:37:00,
2013-01-20 19:42:00,54.8,13.3,30.06,ESE,111,0.0,1.0,19,0.00,,,0.00,Wunderground v.1.15,2013-01-21 03:42:00,
2013-01-20 19:47:00,54.7,13.2,30.06,East,82,0.0,1.0,19,0.00,,,0.00,Wunderground v.1.15,2013-01-21 03:47:00,
2013-01-20 19:53:00,54.5,13.0,30.06,ESE,102,0.0,3.0,19,0.00,,,0.00,Wunderground v.1.15,2013-01-21 03:53:00,
2013-01-20 19:58:00,54.2,13.9,30.07,ESE,102,0.0,3.0,20,0.00,,,0.00,Wunderground v.1.15,2013-01-21 03:58:00,
2013-01-20 20:03:00,53.8,13.6,30.06,ESE,102,0.0,0.0,20,0.00,,,0.00,Wunderground v.1.15,2013-01-21 04:03:00,
2013-01-20 20:08:00,53.2,14.2,30.07,ESE,102,0.0,0.0,21,0.00,,,0.00,Wunderground v.1.15,2013-01-21 04:08:00,
2013-01-20 20:13:00,52.7,12.7,30.07,East,100,0.0,0.0,20,0.00,,,0.00,Wunderground v.1.15,2013-01-21 04:13:00,
2013-01-20 20:18:00,52.8,12.8,30.07,ESE,110,0.0,4.0,20,0.00,,,0.00,Wunderground v.1.15,2013-01-21 04:18:00,
2013-01-20 20:23:00,53.4,12.1,30.07,ESE,107,0.0,3.0,19,0.00,,,0.00,Wunderground v.1.15,2013-01-21 04:23:00,
2013-01-20 20:28:00,54.0,12.6,30.06,ESE,122,0.0,3.0,19,0.00,,,0.00,Wunderground v.1.15,2013-01-21 04:28:00,
2013-01-20 20:33:00,54.3,11.6,30.06,ESE,103,0.0,1.0,18,0.00,,,0.00,Wunderground v.1.15,2013-01-21 04:33:00,
2013-01-20 20:38:00,54.6,11.9,30.06,East,84,0.0,1.0,18,0.00,,,0.00,Wunderground v.1.15,2013-01-21 04:38:00,
2013-01-20 20:43:00,54.6,13.1,30.06,ESE,117,0.0,0.0,19,0.00,,,0.00,Wunderground v.1.15,2013-01-21 04:43:00,
2013-01-20 20:48:00,54.0,12.6,30.06,ESE,117,0.0,0.0,19,0.00,,,0.00,Wunderground v.1.15,2013-01-21 04:48:00,
2013-01-20 20:53:00,53.3,13.2,30.07,ESE,117,0.0,0.0,20,0.00,,,0.00,Wunderground v.1.15,2013-01-21 04:53:00,
2013-01-20 20:58:00,52.7,13.8,30.07,ESE,117,0.0,0.0,21,0.00,,,0.00,Wunderground v.1.15,2013-01-21 04:58:00,
2013-01-20 21:02:00,52.1,13.3,30.06,ESE,117,0.0,0.0,21,0.00,,,0.00,Wunderground v.1.15,2013-01-21 05:02:00,
2013-01-20 21:03:00,51.9,13.1,30.06,ESE,117,0.0,0.0,21,0.00,,,0.00,Wunderground v.1.15,2013-01-21 05:03:00,
2013-01-20 21:04:00,51.8,13.0,30.06,ESE,117,0.0,0.0,21,0.00,,,0.00,Wunderground v.1.15,2013-01-21 05:04:00,
2013-01-20 21:09:00,51.3,11.5,30.06,ESE,110,0.0,0.0,20,0.00,,,0.00,Wunderground v.1.15,2013-01-21 05:09:00,
2013-01-20 21:14:00,52.8,10.4,30.06,ESE,103,0.0,5.0,18,0.00,,,0.00,Wunderground v.1.15,2013-01-21 05:14:00,
2013-01-20 21:19:00,54.6,10.6,30.06,ESE,113,0.0,5.0,17,0.00,,,0.00,Wunderground v.1.15,2013-01-21 05:19:00,
2013-01-20 21:24:00,55.4,11.2,30.05,East,101,0.0,2.0,17,0.00,,,0.00,Wunderground v.1.15,2013-01-21 05:24:00,
2013-01-20 21:29:00,55.6,11.4,30.05,East,98,0.0,2.0,17,0.00,,,0.00,Wunderground v.1.15,2013-01-21 05:29:00,
2013-01-20 21:34:00,55.5,11.3,30.05,East,99,0.0,0.0,17,0.00,,,0.00,Wunderground v.1.15,2013-01-21 05:34:00,
2013-01-20 21:39:00,55.2,11.1,30.05,ENE,74,0.0,0.0,17,0.00,,,0.00,Wunderground v.1.15,2013-01-21 05:39:00,
2013-01-20 21:44:00,55.0,10.9,30.05,ENE,64,0.0,2.0,17,0.00,,,0.00,Wunderground v.1.15,2013-01-21 05:44:00,
2013-01-20 21:49:00,55.1,11.0,30.05,ESE,112,0.0,2.0,17,0.00,,,0.00,Wunderground v.1.15,2013-01-21 05:49:00,
2013-01-20 21:54:00,55.0,10.9,30.06,East,82,0.0,0.0,17,0.00,,,0.00,Wunderground v.1.15,2013-01-21 05:54:00,
2013-01-20 21:59:00,54.9,10.8,30.05,ENE,57,0.0,1.0,17,0.00,,,0.00,Wunderground v.1.15,2013-01-21 05:59:00,
2013-01-20 22:04:00,54.9,10.8,30.05,East,82,0.0,1.0,17,0.00,,,0.00,Wunderground v.1.15,2013-01-21 06:04:00,
2013-01-20 22:09:00,54.8,10.7,30.05,ENE,70,0.0,1.0,17,0.00,,,0.00,Wunderground v.1.15,2013-01-21 06:09:00,
2013-01-20 22:14:00,54.8,10.7,30.05,East,96,0.0,0.0,17,0.00,,,0.00,Wunderground v.1.15,2013-01-21 06:14:00,
2013-01-20 22:19:00,54.8,10.7,30.05,NE,55,0.0,0.0,17,0.00,,,0.00,Wunderground v.1.15,2013-01-21 06:19:00,
2013-01-20 22:24:00,54.9,10.8,30.05,ENE,75,0.0,1.0,17,0.00,,,0.00,Wunderground v.1.15,2013-01-21 06:24:00,
2013-01-20 22:29:00,55.1,11.0,30.05,NNE,28,0.0,3.0,17,0.00,,,0.00,Wunderground v.1.15,2013-01-21 06:29:00,
2013-01-20 22:34:00,55.2,11.1,30.05,East,87,0.0,1.0,17,0.00,,,0.00,Wunderground v.1.15,2013-01-21 06:34:00,
2013-01-20 22:39:00,55.1,11.0,30.04,North,11,0.0,1.0,17,0.00,,,0.00,Wunderground v.1.15,2013-01-21 06:39:00,
2013-01-20 22:44:00,55.0,10.9,30.05,North,5,3.0,5.0,17,0.00,,,0.00,Wunderground v.1.15,2013-01-21 06:44:00,
2013-01-20 22:49:00,55.1,11.0,30.05,ENE,63,0.0,5.0,17,0.00,,,0.00,Wunderground v.1.15,2013-01-21 06:49:00,
2013-01-20 22:54:00,55.4,11.2,30.05,NE,39,0.0,6.0,17,0.00,,,0.00,Wunderground v.1.15,2013-01-21 06:54:00,
2013-01-20 22:59:00,55.9,10.3,30.04,ENE,59,0.0,6.0,16,0.00,,,0.00,Wunderground v.1.15,2013-01-21 06:59:00,
2013-01-20 23:04:00,55.9,10.3,30.04,NE,47,0.0,6.0,16,0.00,,,0.00,Wunderground v.1.15,2013-01-21 07:04:00,
2013-01-20 23:09:00,56.1,10.4,30.04,NE,51,2.0,6.0,16,0.00,,,0.00,Wunderground v.1.15,2013-01-21 07:09:00,
2013-01-20 23:14:00,56.5,10.8,30.03,NNE,19,0.0,9.0,16,0.00,,,0.00,Wunderground v.1.15,2013-01-21 07:14:00,
2013-01-20 23:19:00,56.4,10.7,30.03,NE,51,0.0,9.0,16,0.00,,,0.00,Wunderground v.1.15,2013-01-21 07:19:00,
2013-01-20 23:24:00,56.6,10.9,30.03,ENE,57,2.0,7.0,16,0.00,,,0.00,Wunderground v.1.15,2013-01-21 07:24:00,
2013-01-20 23:29:00,57.3,11.4,30.03,NE,51,0.0,9.0,16,0.00,,,0.00,Wunderground v.1.15,2013-01-21 07:29:00,
2013-01-20 23:35:00,57.5,11.6,30.03,NE,49,0.0,11.0,16,0.00,,,0.00,Wunderground v.1.15,2013-01-21 07:35:00,
2013-01-20 23:40:00,57.6,11.7,30.03,NNE,22,1.0,2.0,16,0.00,,,0.00,Wunderground v.1.15,2013-01-21 07:40:00,
2013-01-20 23:45:00,57.6,11.7,30.03,ENE,61,0.0,5.0,16,0.00,,,0.00,Wunderground v.1.15,2013-01-21 07:45:00,
2013-01-20 23:50:00,57.4,10.0,30.03,NE,50,0.0,1.0,15,0.00,,,0.00,Wunderground v.1.15,2013-01-21 07:50:00,
2013-01-20 23:55:00,57.3,11.4,30.03,NE,50,0.0,9.0,16,0.00,,,0.00,Wunderground v.1.15,2013-01-21 07:55:00,